Salina, KS

10:38 PM CDT on September 22, 2019 (GMT -0500)
Salina Municipal

Weather History for KSLN - August, 2019

Change the Weather History Date:

Saturday, August 24, 2019

  Actual Average Record
Temperature  
Mean Temperature 74 °F 79 °F  
Max Temperature 80 °F 90 °F 111 °F (1936)
Min Temperature 68 °F 67 °F 45 °F (1928)
Degree Days  
Heating Degree Days 0 0  
Month to date heating degree days 0 0  
Since 1 June heating degree days 1 7  
Since 1 July heating degree days 0 0  
Cooling Degree Days 9 14  
Month to date cooling degree days 340 366  
Year to date cooling degree days 1213 1320  
Since 1 June cooling degree days 1125 1192  
Growing Degree Days 24 (Base 50)    
Moisture  
Dew Point 68 °F    
Average Humidity 82    
Maximum Humidity 93    
Minimum Humidity 71    
Precipitation  
Precipitation 0.14 in 0.12 in 2.18 in (1972)
Month to date precipitation 6.45 3.11  
Year to date precipitation 28.56 23.50  
Sea Level Pressure  
Sea Level Pressure 30.00 in    
Wind  
Wind Speed 11 mph (ESE)    
Max Wind Speed 28 mph    
Max Gust Speed 41 mph    
Visibility 10 miles    
Events Rain , Thunderstorm    
T = Trace of Precipitation, MM = Missing Value Source: NWS Daily Summary

Daily Weather History Graph

Daily Weather History Graph

Search for Another Location

Airport or City:

Astronomy

Aug. 24, 2019 Rise Set
Actual Time 6:52 AM CDT 8:12 PM CDT
Civil Twilight 6:24 AM CDT 8:40 PM CDT
Nautical Twilight 5:51 AM CDT 9:13 PM CDT
Astronomical Twilight 5:16 AM CDT 9:48 PM CDT
Moon 12:47 AM CDT (8/24) 3:28 PM CDT (8/24)
Length of Visible Light 14h 16m
Length of Day
13h 20m
Last Quarter, 39% of the Moon is Illuminated
Aug 24
Last Quarter
Aug 30
New
Sep 5
First Quarter
Sep 13
Full
Sep 21
Last Quarter

Hourly Weather History & Observations

Time (CDT) Temp. Dew Point Humidity Pressure Visibility Wind Dir Wind Speed Gust Speed Precip Events Conditions
12:13 AM 73.0 °F 70.0 °F 90% 30.05 in 10.0 mi ESE 5.8 mph - N/A   Overcast
12:46 AM 73.0 °F 70.0 °F 90% 30.05 in 10.0 mi ESE 5.8 mph - N/A   Mostly Cloudy
12:53 AM 73.0 °F 70.0 °F 90% 30.02 in 10.0 mi SE 5.8 mph - N/A   Mostly Cloudy
1:20 AM 73.0 °F 69.1 °F 87% 30.05 in 10.0 mi SE 8.1 mph - N/A   Overcast
1:46 AM 73.0 °F 68.0 °F 84% 30.05 in 10.0 mi SE 8.1 mph - N/A   Overcast
1:53 AM 73.0 °F 68.0 °F 84% 30.01 in 10.0 mi SE 8.1 mph - N/A   Mostly Cloudy
2:09 AM 73.0 °F 69.1 °F 87% 30.05 in 10.0 mi ESE 6.9 mph - N/A   Overcast
2:53 AM 72.0 °F 69.1 °F 91% 30.01 in 10.0 mi SE 4.6 mph - N/A   Overcast
3:39 AM 72.0 °F 68.0 °F 87% 30.05 in 10.0 mi East 5.8 mph - N/A   Mostly Cloudy
3:53 AM 72.0 °F 68.0 °F 87% 30.01 in 10.0 mi East 5.8 mph - N/A   Mostly Cloudy
5:20 AM 71.1 °F 68.0 °F 90% 30.04 in 10.0 mi East 6.9 mph - N/A   Overcast
5:53 AM 71.1 °F 68.0 °F 90% 30.01 in 10.0 mi ESE 9.2 mph - N/A   Overcast
6:43 AM 71.1 °F 66.9 °F 87% 30.02 in 10.0 mi East 9.2 mph - N/A   Scattered Clouds
6:53 AM 70.0 °F 66.9 °F 90% 30.00 in 10.0 mi East 9.2 mph - N/A   Scattered Clouds
6:57 AM 70.0 °F 66.9 °F 90% 30.03 in 10.0 mi East 6.9 mph - N/A   Mostly Cloudy
7:05 AM 71.1 °F 66.9 °F 87% 30.04 in 10.0 mi ESE 8.1 mph - N/A   Mostly Cloudy
7:53 AM 71.1 °F 66.9 °F 87% 30.02 in 10.0 mi East 9.2 mph - N/A   Overcast
8:53 AM 71.1 °F 68.0 °F 90% 30.02 in 10.0 mi ESE 5.8 mph - N/A   Overcast
9:16 AM 72.0 °F 68.0 °F 87% 30.05 in 10.0 mi East 5.8 mph - N/A   Overcast
9:23 AM 72.0 °F 68.0 °F 87% 30.04 in 10.0 mi East 6.9 mph - N/A   Overcast
9:53 AM 73.0 °F 68.0 °F 84% 30.01 in 10.0 mi ESE 6.9 mph - N/A   Mostly Cloudy
10:20 AM 73.0 °F 68.0 °F 84% 30.03 in 10.0 mi East 8.1 mph - N/A   Overcast
10:48 AM 73.4 °F 68.0 °F 83% 30.05 in 10.0 mi ESE 4.6 mph - 0.00 in   Overcast
10:53 AM 73.0 °F 68.0 °F 84% 30.02 in 10.0 mi East 8.1 mph - 0.00 in Rain Light Rain
11:10 AM 73.0 °F 69.1 °F 87% 30.01 in 10.0 mi ESE 13.8 mph - 0.01 in Rain Light Rain
11:49 AM 75.2 °F 69.8 °F 83% 30.02 in 10.0 mi SE 12.7 mph - 0.01 in   Mostly Cloudy
11:53 AM 75.9 °F 70.0 °F 82% 29.99 in 10.0 mi SE 12.7 mph - 0.01 in   Mostly Cloudy
12:17 PM 75.0 °F 69.1 °F 82% 30.01 in 10.0 mi SSE 13.8 mph - N/A   Overcast
12:40 PM 75.0 °F 69.1 °F 82% 30.01 in 10.0 mi ESE 11.5 mph - N/A   Overcast
12:53 PM 77.0 °F 69.1 °F 76% 29.97 in 10.0 mi SE 13.8 mph - N/A   Overcast
1:06 PM 75.9 °F 68.0 °F 76% 30.00 in 10.0 mi SE 12.7 mph - N/A   Overcast
1:44 PM 77.0 °F 68.0 °F 74% 29.99 in 10.0 mi SE 12.7 mph 21.9 mph N/A   Overcast
1:53 PM 77.0 °F 69.1 °F 76% 29.96 in 10.0 mi SE 16.1 mph - N/A   Overcast
2:53 PM 78.1 °F 68.0 °F 71% 29.95 in 10.0 mi ESE 12.7 mph - N/A   Overcast
3:53 PM 79.0 °F 68.0 °F 69% 29.95 in 10.0 mi ESE 9.2 mph - N/A   Overcast
4:53 PM 79.0 °F 68.0 °F 69% 29.93 in 10.0 mi East 11.5 mph - N/A   Overcast
5:53 PM 79.0 °F 68.0 °F 69% 29.93 in 10.0 mi East 12.7 mph - N/A   Overcast
6:53 PM 77.0 °F 68.0 °F 74% 29.93 in 10.0 mi East 10.4 mph - N/A   Overcast
7:11 PM 77.0 °F 68.0 °F 74% 29.96 in 10.0 mi ESE 13.8 mph - N/A   Overcast
7:53 PM 75.0 °F 66.9 °F 76% 29.93 in 10.0 mi ESE 15.0 mph - N/A   Mostly Cloudy
8:53 PM 73.0 °F 66.9 °F 81% 29.93 in 10.0 mi East 15.0 mph - N/A   Clear
9:22 PM 72.0 °F 66.9 °F 84% 29.97 in 10.0 mi East 11.5 mph - N/A Thunderstorm Overcast
9:43 PM 72.0 °F 66.0 °F 81% 29.97 in 10.0 mi East 11.5 mph - N/A Thunderstorm Overcast
9:53 PM 72.0 °F 66.9 °F 84% 29.96 in 10.0 mi East 8.1 mph 18.4 mph 0.00 in Rain , Thunderstorm Light Rain
10:24 PM 71.1 °F 66.9 °F 87% 29.99 in 2.5 mi East 9.2 mph - 0.11 in Rain , Thunderstorm Light Rain
10:32 PM 71.1 °F 66.9 °F 87% 29.99 in 10.0 mi East 11.5 mph - 0.11 in Rain , Thunderstorm Light Rain
10:44 PM 70.0 °F 66.9 °F 90% 29.99 in 10.0 mi ENE 12.7 mph - 0.12 in Rain , Thunderstorm Light Thunderstorms and Rain
10:53 PM 70.0 °F 66.0 °F 87% 29.96 in 10.0 mi East 12.7 mph - 0.12 in Thunderstorm Thunderstorm
11:13 PM 69.1 °F 66.0 °F 90% 29.97 in 10.0 mi East 15.0 mph - 0.00 in Thunderstorm Overcast
11:48 PM 69.8 °F 66.2 °F 88% 29.93 in 10.0 mi East 19.6 mph 28.8 mph 0.00 in Rain Light Rain
11:53 PM 68.0 °F 66.0 °F 93% 29.90 in 9.0 mi ESE 18.4 mph 28.8 mph 0.00 in Rain Light Rain